Location: Wanzleben
(52.0609°N, 11.4408°E)
Time: 02:52:38
(UTC+00:00)

COSMOS 2406 - Pass Details

Date: 26 January 2021
Orbit: 841 x 865 km, 71.0° (Epoch: 05 March)

Event Time Altitude Azimuth Distance (km) Brightness Sun altitude
Rises 17:58:43 0° 327° (NNW) 3,460 6.8 -19.3°
Reaches altitude 10° 18:01:12 10° 325° (NW) 2,518 6.0 -19.7°
Maximum altitude 18:06:55 64° 246° (WSW) 958 3.7 -20.6°
Drops below altitude 10° 18:12:35 10° 166° (SSE) 2,493 5.5 -21.5°
Sets 18:15:03 0° 163° (SSE) 3,423 6.2 -21.8°
